Temp
8 8 7 7 7 7 7 7 7 7 7 7 7 7 7 7 8 7 7 7 7 7 7 7 7 7 7 7 7 7 8 11 13 11 12 18 20 21 21 21 21 20 19 19 19 19 18 18 18 18 20 20 19 20 20 20 21 21 22 21 21 21 22 23 24 23 24 25 26 25 23 24 25 24 23 24 24 22 22 22 20 20 20 19 19 19 19 19
7 7 7 7 7 7 7 7 7 7 7 7 7 7 7 7 7 7 7 7 7 7 7 7 7 7 7 8 7 7 9 10 10 11 15 21 21 21 21 21 20 20 19 19 19 19 19 18 18 18 20 20 19 20 20 20 21 21 20 21 22 22 22 22 23 23 23 24 25 24 23 23 25 24 24 24 23 23 24 23 21 20 19 19 19 19 19 19
7 7 7 7 7 7 7 7 7 7 7 7 7 7 7 7 7 7 7 7 7 7 7 7 7 7 7 8 7 8 9 9 12 16 20 22 21 22 21 20 20 20 19 20 20 20 20 19 18 19 20 20 19 19 20 20 21 21 20 22 23 22 22 22 22 23 23 23 24 24 23 24 24 24 24 24 23 23 25 25 23 22 20 19 19 19 19 19
7 7 7 7 7 7 7 7 7 7 7 7 7 7 7 7 7 7 7 7 7 7 7 7 7 7 7 7 8 10 9 11 17 20 20 20 20 21 21 20 19 19 20 20 20 20 20 19 19 20 20 20 19 19 20 21 21 21 21 22 22 21 22 23 22 23 23 22 23 24 24 25 24 23 24 24 25 25 25 26 25 24 21 19 19 19 19 19
7 7 7 7 7 7 7 7 7 7 7 7 7 7 7 7 7 7 7 7 7 7 7 7 7 7 7 7 9 10 10 16 21 19 19 19 19 20 21 20 19 19 19 19 19 19 19 19 19 20 20 20 19 20 21 21 21 21 21 22 22 21 22 24 23 23 22 22 23 24 25 25 24 23 24 25 27 27 26 25 24 23 21 19 19 19 19 19
7 7 7 7 7 7 7 7 7 7 7 7 7 7 7 7 7 7 6 7 7 7 7 7 7 7 7 8 10 10 13 20 20 19 19 20 20 20 21 20 18 18 19 19 19 19 19 19 20 20 20 20 20 21 21 20 21 21 22 21 22 21 22 23 23 23 22 22 23 24 24 24 24 25 23 24 26 25 23 23 22 22 21 20 19 19 19 19
7 7 7 6 6 7 7 7 7 7 7 7 7 7 7 7 7 7 6 6 7 6 6 7 7 7 7 9 10 11 13 18 19 19 20 20 20 20 20 19 18 18 18 19 18 19 19 18 20 20 20 20 20 21 20 20 21 21 22 21 22 22 22 23 23 22 21 22 23 23 23 23 25 25 22 23 23 21 21 21 21 21 20 20 19 19 19 19
6 6 6 6 6 7 7 7 7 7 7 7 7 7 7 7 7 7 6 6 6 6 6 7 7 7 7 9 11 12 13 16 19 20 20 20 20 20 20 18 17 18 18 19 19 19 19 19 20 19 20 21 20 20 20 21 21 21 22 22 22 22 22 23 22 22 21 22 22 22 22 24 25 24 23 24 22 20 21 21 21 21 20 19 19 19 19 19
6 6 6 6 6 6 6 7 7 7 7 6 6 6 6 6 6 6 6 6 6 6 6 7 7 7 7 8 10 13 15 17 19 19 19 19 19 19 19 18 17 17 18 18 19 19 19 19 20 20 21 21 20 20 20 21 21 21 22 22 22 23 23 23 23 23 22 22 22 22 23 24 23 23 24 23 20 20 21 21 21 20 19 19 19 19 19 19
6 6 6 6 6 6 6 6 6 7 6 6 6 6 6 6 6 6 6 6 6 6 6 7 7 7 7 8 10 15 17 18 18 18 18 18 18 17 18 18 17 17 18 17 18 19 20 20 19 20 21 20 20 20 20 21 22 21 22 22 23 23 23 22 23 23 22 22 23 24 24 24 22 23 26 23 20 21 21 20 21 20 20 19 19 19 19 19
6 6 6 6 6 6 6 6 6 6 6 6 6 6 6 6 6 6 6 6 6 6 6 6 7 7 7 8 11 15 18 18 18 18 17 17 17 16 17 18 17 17 18 17 18 19 20 20 20 20 21 21 20 20 20 22 22 22 22 22 22 22 22 22 24 23 23 23 23 23 24 24 23 24 27 23 20 21 21 20 20 20 20 19 19 19 19 19
6 6 6 6 6 6 6 6 6 6 6 6 6 6 6 6 6 6 6 6 6 6 6 6 7 7 7 7 10 15 18 17 17 17 17 16 16 16 16 17 17 18 19 18 18 19 20 20 20 20 21 21 21 20 21 21 22 22 22 23 23 23 23 24 24 23 23 24 23 24 25 25 25 25 24 21 20 21 20 21 21 20 20 20 20 19 19 19
6 6 6 6 6 6 6 6 6 6 6 6 6 6 6 6 6 6 5 6 6 6 6 6 7 7 7 9 12 16 18 17 17 17 16 16 16 16 16 16 17 18 19 19 18 18 20 20 20 21 20 20 21 21 21 21 21 22 22 23 23 23 24 24 23 22 23 23 23 25 24 25 26 25 22 20 20 21 21 21 21 21 21 20 20 19 19 19
6 6 6 6 6 6 6 6 6 6 6 6 6 6 6 5 5 6 5 6 6 6 6 6 7 7 7 10 14 17 17 17 16 17 16 16 16 16 16 16 17 17 18 19 18 19 19 19 20 21 20 20 21 21 21 21 21 22 22 22 22 22 23 24 22 22 24 23 22 25 23 24 27 26 22 20 20 22 22 22 22 21 21 21 20 19 19 19
6 6 6 6 6 6 6 6 6 6 6 6 6 5 5 5 5 5 5 6 6 6 6 6 7 7 7 9 14 16 16 16 16 17 17 17 17 16 16 17 17 17 18 19 19 19 19 19 20 21 20 20 20 21 21 21 21 21 22 21 21 21 23 24 22 22 25 23 22 25 24 24 27 25 22 21 21 22 23 23 22 21 21 21 21 20 19 19
6 6 6 6 6 6 6 6 6 6 6 6 5 5 5 5 5 5 5 5 6 6 6 7 7 7 9 12 15 16 15 15 16 18 18 17 18 17 17 17 16 16 17 18 18 18 18 19 20 20 20 20 21 22 21 21 21 21 21 21 21 21 22 24 23 21 23 23 23 24 24 25 26 24 22 21 21 21 22 22 22 22 21 21 21 21 20 20
6 6 6 6 6 6 6 6 6 6 6 6 5 5 5 6 6 6 5 5 6 6 6 8 8 7 10 15 16 16 16 16 17 18 18 17 18 18 17 16 16 16 17 17 18 18 18 19 19 19 20 20 20 21 21 20 20 20 21 21 20 21 21 22 23 22 22 24 24 24 24 26 25 24 22 21 21 21 21 22 22 22 21 21 21 21 21 20
5 5 6 5 5 5 6 6 6 5 5 5 5 5 6 6 6 6 6 6 6 7 7 7 7 9 13 15 15 16 17 17 17 17 17 16 17 18 17 16 16 16 17 17 17 18 18 18 18 19 19 19 19 21 20 20 20 20 21 21 20 20 21 22 23 23 23 24 25 24 24 25 25 24 22 21 21 21 22 22 22 22 21 21 21 21 21 20
5 5 5 5 5 5 5 5 5 5 5 5 5 5 6 6 6 7 6 6 7 9 10 9 9 13 16 14 15 16 16 17 17 17 16 16 16 18 17 17 16 17 18 18 18 18 18 18 18 19 19 19 20 21 21 21 22 21 21 21 21 21 21 22 23 22 22 24 25 25 25 25 26 25 22 21 21 21 21 22 21 21 21 21 21 21 21 20
5 5 5 5 5 5 5 5 5 5 5 5 5 6 7 8 8 8 7 6 8 10 11 10 10 13 15 14 14 15 16 18 17 17 16 16 17 18 17 17 17 17 18 18 18 17 18 18 18 19 19 19 19 20 21 21 21 21 21 21 21 21 22 22 23 22 21 23 24 24 25 25 24 23 21 20 21 21 21 21 21 21 21 21 21 21 21 19
5 5 5 5 5 5 5 5 5 5 5 5 5 5 7 8 9 9 8 8 8 9 9 9 10 12 14 14 14 14 15 16 17 17 16 17 18 18 18 18 17 17 17 18 18 17 18 18 18 19 19 19 19 19 20 20 20 21 21 21 21 21 22 22 22 21 21 23 22 21 23 23 21 20 19 20 21 21 21 21 21 22 21 21 21 21 20 19
5 5 5 5 5 5 5 5 5 5 5 5 4 5 6 7 8 8 8 9 10 10 9 10 10 11 12 13 13 14 14 15 16 17 16 17 18 19 18 18 18 17 17 17 18 17 17 18 18 18 18 18 18 18 19 20 20 21 21 21 21 21 21 21 21 20 21 22 22 21 22 21 19 19 19 19 20 20 20 20 21 21 21 21 20 20 20 19
5 5 5 5 5 5 5 5 5 5 5 5 4 4 6 7 8 7 8 9 10 11 10 10 10 10 11 12 13 13 14 14 16 17 17 17 18 18 18 18 18 17 16 17 18 17 17 18 18 17 17 18 18 17 19 20 20 20 21 21 21 20 21 22 21 20 20 20 21 22 21 21 20 20 20 19 18 19 19 20 20 20 21 21 20 20 20 19
5 5 5 5 5 5 5 5 5 5 5 4 4 5 7 8 7 7 8 9 10 11 11 11 11 11 12 13 14 14 14 15 15 17 18 18 18 18 19 18 18 17 17 18 18 18 18 19 18 16 18 19 18 17 19 20 20 20 20 21 21 21 21 22 21 20 20 19 21 22 22 21 20 20 20 19 18 18 18 19 19 19 19 20 20 20 19 19
5 5 5 5 5 5 5 5 5 4 4 4 5 6 7 7 7 6 8 10 11 12 12 12 12 13 14 14 15 15 15 15 16 17 18 18 18 18 18 18 18 18 17 17 18 19 19 18 17 17 18 19 18 18 19 21 20 19 20 21 21 22 22 22 21 21 21 20 20 21 21 21 20 19 19 19 19 18 18 18 18 18 18 19 20 19 18 18
5 5 5 5 5 5 5 5 4 4 4 5 6 6 6 7 7 6 8 11 13 13 14 14 14 15 16 15 15 15 15 16 17 18 18 19 20 19 18 18 19 18 17 17 18 19 18 16 17 18 18 18 19 19 19 20 20 20 21 21 21 22 22 21 21 21 21 21 19 19 21 21 20 20 19 18 19 19 19 19 18 18 18 18 19 19 18 18
5 4 5 5 5 5 4 5 4 4 5 6 6 6 6 7 6 6 9 12 13 14 14 13 14 16 17 15 16 17 16 17 18 17 18 19 20 20 19 18 19 18 17 18 18 19 17 16 17 18 18 18 19 19 19 19 21 21 21 21 21 21 22 21 21 21 21 21 19 19 21 21 20 20 18 18 19 19 19 19 18 18 17 17 17 17 18 18
4 4 4 5 5 5 4 4 4 4 5 6 6 6 7 7 6 7 11 13 14 16 15 14 15 17 16 16 17 18 18 18 18 18 19 20 20 20 19 19 19 18 17 18 19 18 18 17 17 17 18 18 19 20 19 19 21 21 20 20 20 21 21 21 21 21 20 20 21 20 21 21 20 20 19 19 20 19 18 18 18 17 17 16 16 16 17 17
4 4 4 4 4 4 4 4 4 5 5 5 5 6 6 6 7 9 12 14 15 17 17 16 16 16 15 15 16 18 19 19 19 18 19 19 20 20 19 19 19 19 18 19 19 18 18 18 19 18 19 19 19 20 19 20 21 20 18 19 19 20 20 20 21 21 20 20 21 20 20 20 20 20 19 19 19 18 18 18 18 17 17 16 16 16 16 16
4 4 4 5 4 4 4 4 4 5 5 5 5 6 6 6 9 11 12 13 15 16 17 16 16 16 15 15 15 17 18 18 18 18 18 19 20 20 19 19 19 19 18 19 19 18 18 18 19 19 20 20 19 18 18 20 20 19 18 19 20 20 19 20 20 20 20 20 20 19 18 20 21 19 18 18 18 17 18 18 18 17 17 16 15 15 15 14
4 4 4 5 4 4 4 4 5 5 4 4 5 6 7 9 11 12 12 14 15 16 16 16 16 16 15 15 16 16 18 18 18 18 18 19 19 19 19 18 19 19 18 19 19 18 18 18 19 19 19 19 19 18 18 19 19 19 20 21 20 20 20 20 20 20 20 20 20 18 17 20 21 19 17 17 18 17 17 17 17 17 16 15 15 15 14 14
4 4 4 4 4 4 4 4 5 4 4 5 5 6 9 11 11 11 13 15 15 15 16 16 16 16 15 16 17 17 18 18 18 19 19 19 19 19 19 19 19 18 17 18 18 18 18 18 19 19 19 20 20 19 18 18 19 20 21 21 20 20 20 20 20 20 20 20 19 17 18 20 19 18 18 18 17 17 17 17 17 16 16 15 15 15 15 15
4 4 4 4 4 4 4 4 4 4 4 4 5 8 11 11 11 12 13 14 14 15 15 15 16 16 16 16 17 17 18 18 18 19 19 19 19 18 18 18 19 19 17 17 18 17 18 18 19 19 19 20 21 20 18 18 19 20 21 21 20 20 19 19 19 19 20 20 19 17 19 19 18 17 17 17 16 16 16 16 16 16 15 15 15 15 15 15
4 4 4 4 4 4 4 4 4 4 4 4 6 10 11 10 11 13 14 14 15 15 14 14 16 16 16 17 17 17 18 18 18 19 18 18 18 18 18 18 19 19 18 17 17 17 18 18 19 19 19 20 21 21 20 19 19 20 21 21 21 20 20 19 19 20 20 20 19 18 19 19 18 18 17 16 16 16 16 16 16 16 15 15 15 15 15 15
4 4 4 4 4 4 4 4 4 4 3 5 9 11 10 10 12 13 14 14 15 15 14 14 15 16 16 17 17 18 18 18 18 18 18 18 18 18 18 18 18 18 18 17 17 17 18 18 20 20 19 20 21 21 20 20 20 19 20 21 21 21 21 19 18 19 19 20 19 17 17 17 17 17 16 16 16 16 16 16 15 15 15 15 15 15 14 14
4 4 4 4 4 5 5 4 4 4 4 7 11 11 10 12 13 13 14 14 15 14 13 14 16 16 16 16 17 18 18 18 18 18 17 18 18 18 18 19 18 18 19 18 17 17 18 19 19 19 19 20 21 21 20 21 20 19 19 20 20 20 21 19 17 16 18 20 18 15 16 17 17 17 17 17 17 16 16 16 15 15 15 15 15 14 14 13
4 4 5 4 5 6 5 4 4 4 5 8 11 11 11 13 13 14 15 15 15 14 13 13 15 16 16 16 17 17 18 18 18 18 17 17 18 17 18 19 18 19 20 19 18 17 18 19 18 18 20 20 20 21 20 21 21 19 20 20 19 20 20 20 19 18 19 20 17 14 16 17 18 18 17 16 17 16 16 15 15 15 15 14 14 13 13 13
4 4 5 6 6 6 5 4 4 4 6 10 11 11 12 13 14 15 15 15 15 14 12 12 15 16 16 16 17 18 18 18 17 17 17 17 17 17 18 19 18 19 20 20 19 18 18 20 19 19 20 19 19 21 20 20 20 21 21 21 20 20 20 19 19 19 19 18 16 15 16 17 18 18 17 16 17 16 16 15 15 15 14 14 13 13 12 12
4 4 6 6 6 6 5 4 5 6 8 10 11 12 13 13 14 14 14 14 15 14 12 12 14 15 16 17 17 17 18 18 17 17 16 17 17 17 18 18 18 19 20 20 20 17 17 19 19 19 19 19 20 21 20 20 20 20 21 20 20 20 20 20 19 20 20 17 16 16 16 17 19 19 17 17 17 17 16 15 15 14 13 13 13 12 12 12
4 5 7 6 5 5 4 5 7 8 9 10 11 12 12 13 13 13 14 15 15 14 13 13 14 15 16 17 17 17 18 18 17 17 17 17 17 17 17 18 19 19 19 19 19 17 17 18 19 19 18 19 20 20 20 21 20 20 20 20 20 19 20 20 19 19 19 18 17 16 16 18 19 18 18 18 17 17 16 15 14 13 13 12 12 11 11 11
5 7 7 5 4 5 5 7 8 9 9 10 10 11 12 13 13 13 14 15 15 15 14 14 14 15 15 16 17 18 18 17 17 17 17 17 17 17 17 18 18 18 18 19 19 18 18 19 19 19 19 19 20 18 18 20 21 21 21 21 21 20 20 21 19 18 18 18 17 17 18 19 17 16 18 18 17 17 16 14 13 12 12 11 11 11 11 11
6 7 7 5 4 5 6 8 9 9 10 10 11 12 12 13 14 14 14 15 15 15 15 14 14 15 15 15 16 18 17 17 17 17 17 17 17 17 16 16 17 19 19 19 19 18 18 19 19 18 18 19 18 16 16 17 20 21 20 20 21 21 21 21 20 19 18 17 17 18 20 19 16 16 18 17 17 16 15 14 13 12 11 11 11 11 10 10
6 7 6 5 5 5 7 9 9 9 10 10 11 12 13 13 13 14 14 14 14 15 14 14 15 15 15 16 16 17 17 16 16 17 17 16 16 16 16 15 16 18 19 19 19 18 18 19 19 18 18 18 18 17 16 17 19 20 19 17 19 21 21 21 20 20 18 17 18 19 20 19 16 16 17 17 16 15 15 14 13 11 11 11 10 10 10 10
6 7 6 5 5 6 8 9 9 9 10 10 11 12 12 13 13 13 14 14 14 15 14 14 16 16 16 16 17 17 17 16 16 16 16 16 16 16 15 15 16 18 19 19 19 19 19 19 18 18 18 18 18 19 19 19 19 18 17 16 16 19 20 19 19 20 19 17 18 20 20 18 17 16 16 15 14 13 13 13 12 11 11 10 10 9 9 10
6 7 6 6 5 6 8 9 9 9 10 10 11 11 12 13 13 13 14 14 15 15 14 15 16 16 15 15 16 16 16 17 16 16 16 16 16 16 15 15 16 18 17 17 19 20 18 16 18 19 18 18 18 19 19 19 18 16 15 15 16 17 19 20 19 20 20 17 17 20 20 17 16 16 15 14 13 13 12 11 11 10 10 10 10 9 9 10
6 7 6 6 6 7 8 8 8 9 9 10 10 11 12 12 13 14 13 14 15 15 15 15 15 15 15 16 16 16 16 17 17 16 16 16 16 16 15 15 16 17 16 16 18 18 16 13 14 17 18 18 18 17 16 16 18 17 16 16 16 16 18 20 20 21 20 17 17 19 18 16 16 16 15 14 13 12 11 11 10 10 10 10 9 9 9 9
6 7 6 6 7 7 8 8 8 9 9 10 11 11 12 12 13 14 14 14 15 14 15 15 14 14 16 16 16 16 16 16 17 17 16 16 16 16 15 16 16 17 17 17 16 17 17 14 13 13 14 14 14 14 13 14 16 16 15 16 15 15 17 20 21 20 19 19 19 18 16 16 16 15 14 14 13 12 11 10 10 9 9 9 9 9 9 9
6 7 7 8 8 8 8 9 9 9 9 10 11 11 11 11 12 13 14 15 15 15 15 15 14 14 15 16 16 16 16 16 16 16 16 16 16 16 16 16 16 16 17 16 15 16 17 15 13 12 12 12 12 13 12 12 12 12 13 14 14 14 17 20 19 17 18 21 20 18 16 16 16 15 14 13 13 12 10 10 9 9 9 9 9 9 9 8
7 7 8 8 9 9 9 9 9 9 9 10 11 11 11 12 13 13 14 14 16 15 15 15 15 13 13 15 16 16 16 16 16 15 16 16 16 16 17 17 17 16 17 17 15 15 16 14 12 13 13 12 12 12 12 12 12 12 12 12 13 13 14 16 15 14 16 19 19 17 16 15 14 13 13 12 11 10 9 9 9 9 9 9 9 8 8 8
6 7 8 8 8 8 9 9 9 9 10 10 11 11 11 12 13 14 13 14 15 16 15 15 14 14 14 15 16 16 15 16 17 17 16 16 17 17 17 17 17 17 17 17 16 15 16 14 12 13 14 13 12 12 13 13 12 12 12 12 13 13 13 14 14 13 14 16 17 16 15 13 11 10 10 10 9 9 8 8 8 8 8 8 8 8 7 7
6 7 7 7 8 9 9 9 9 9 10 10 11 11 11 12 13 13 14 13 13 15 15 15 15 15 15 15 15 15 14 15 17 16 15 16 16 16 16 16 16 18 17 16 15 16 16 14 12 14 15 13 12 12 12 13 13 13 12 12 12 13 13 13 13 13 14 16 15 15 15 13 10 9 9 9 8 8 8 7 7 7 8 8 8 7 7 6
6 6 7 7 8 9 9 9 9 9 10 11 11 11 12 12 12 12 14 14 13 13 14 14 15 15 15 15 14 14 14 14 14 13 13 14 13 13 13 14 14 16 17 16 14 14 15 14 14 15 16 13 12 12 12 14 17 16 13 11 11 12 12 13 12 12 14 15 15 14 14 11 9 9 9 8 8 7 7 7 7 7 7 7 7 7 6 6
Height
810 810 809 808 808 808 807 807 806 806 805 805 804 804 803 803 802 801 800 799 798 797 796 795 794 792 791 790 788 787 785 783 781 780 775 767 768 772 772 773 775 775 776 778 779 781 783 785 785 786 786 787 790 791 792 792 792 794 799 806 807 806 803 796 795 793 791 788 785 784 785 785 783 781 778 776 779 782 783 783 784 785 785 785 786 787 788 789
809 809 808 808 807 807 806 806 805 805 804 804 804 803 802 802 801 800 799 798 797 796 795 794 793 792 791 789 788 786 784 782 781 776 767 764 768 769 770 772 773 774 775 776 778 779 782 784 785 786 786 789 791 791 792 792 792 796 803 806 801 799 797 791 791 791 790 789 786 785 786 785 782 781 778 780 785 784 784 785 785 787 787 787 787 788 789 790
808 808 807 807 806 806 806 805 804 804 803 803 802 802 801 801 800 800 799 798 797 796 795 794 793 791 790 789 788 786 784 783 779 769 762 764 766 765 767 769 771 773 774 775 776 778 779 781 783 785 787 790 792 792 793 793 793 796 801 803 796 794 794 791 791 790 788 789 788 787 785 785 781 780 779 782 787 786 783 783 784 786 787 788 788 788 789 790
807 807 806 806 806 805 805 804 804 803 803 802 801 801 801 800 799 799 798 797 796 796 794 793 792 791 790 788 787 785 785 782 772 763 761 763 763 764 765 766 769 771 773 775 776 777 778 780 783 784 786 791 793 793 793 792 793 796 797 796 792 793 793 788 788 788 788 790 790 788 786 785 782 781 781 782 786 787 782 777 778 781 783 787 788 788 790 791
806 806 805 805 805 804 804 803 803 802 802 801 801 800 799 799 798 797 797 796 795 795 794 793 791 790 789 787 786 784 785 779 765 760 762 762 762 764 764 764 766 769 772 775 776 777 778 781 783 785 787 791 794 793 792 790 791 795 793 791 790 793 792 785 786 788 788 790 789 788 787 784 783 783 782 781 783 783 778 774 775 777 781 785 787 788 790 791
806 805 805 804 804 804 803 803 802 801 801 800 800 799 799 798 797 797 796 795 795 794 793 792 791 790 788 786 786 784 784 773 761 761 761 761 762 763 763 763 765 768 771 773 775 777 778 781 783 785 787 790 792 790 790 789 790 793 792 790 789 790 789 785 785 787 787 789 789 788 786 784 784 784 783 782 781 778 775 774 775 777 780 784 786 788 790 791
805 805 804 804 803 803 802 802 801 800 800 799 799 798 798 797 796 796 795 794 794 793 792 791 790 790 787 786 785 785 785 770 759 762 761 761 762 762 763 763 765 767 769 771 774 775 777 780 782 784 787 789 791 788 788 789 789 792 792 789 788 787 787 785 785 786 787 788 786 785 786 785 784 785 786 783 780 779 776 775 775 778 781 784 787 788 790 791
805 804 803 803 802 802 801 800 800 799 799 798 798 797 797 796 795 795 794 794 793 792 792 791 790 789 787 786 784 785 783 767 759 762 761 760 761 761 762 763 765 767 768 769 770 773 776 779 781 783 786 786 787 788 788 789 791 792 790 787 786 786 785 784 784 786 787 786 784 785 786 785 782 783 785 782 780 780 777 776 776 779 782 785 787 789 790 791
804 803 803 802 801 800 800 799 799 798 798 797 796 796 795 795 794 794 794 793 792 792 791 791 790 789 788 787 786 783 773 762 761 762 760 760 760 760 760 761 764 766 768 769 770 772 774 777 778 779 781 783 784 786 787 789 791 789 786 786 785 784 783 783 783 783 785 785 783 785 785 783 781 783 783 781 780 779 778 778 778 780 783 786 787 789 790 791
803 802 802 801 800 799 798 798 797 797 796 796 795 795 794 794 793 793 792 792 792 791 790 791 789 789 789 787 787 780 765 760 762 760 759 760 759 759 760 760 762 765 767 769 770 770 771 772 775 775 778 782 783 784 786 786 785 783 784 784 783 783 783 783 782 782 783 782 781 783 784 782 782 784 782 779 780 779 779 780 779 781 784 786 788 789 790 792
802 801 801 800 799 798 797 797 796 796 795 794 794 794 793 792 792 792 791 791 790 790 790 790 789 789 788 788 786 774 762 761 761 760 760 759 759 760 760 760 761 764 766 768 769 769 770 771 773 776 778 779 782 785 784 781 780 782 783 784 784 784 784 782 781 781 781 780 779 780 783 783 783 784 780 779 780 779 780 781 781 782 785 786 788 789 790 792
801 800 799 799 798 797 796 796 795 794 793 793 793 792 792 791 790 790 790 790 789 789 789 789 789 789 788 790 782 767 761 762 760 760 761 760 761 761 761 762 763 764 764 766 769 769 771 772 772 776 778 777 781 785 782 778 779 781 782 785 784 783 782 779 778 781 781 779 777 777 782 784 783 783 781 780 780 780 781 782 782 783 784 786 788 789 791 792
799 799 798 797 797 796 795 794 793 793 792 791 791 791 790 789 789 789 788 789 788 788 788 788 789 788 790 785 770 760 761 762 760 760 760 762 763 763 763 764 765 766 766 766 768 770 772 772 772 775 776 777 780 781 778 778 780 782 783 784 784 786 783 777 779 781 780 779 775 776 786 785 779 780 781 782 781 781 782 782 782 783 784 786 787 790 791 792
798 797 797 796 795 794 794 793 793 791 790 790 789 789 788 787 787 787 787 787 787 788 787 788 788 788 789 777 760 758 760 760 759 758 759 761 763 764 764 765 766 767 768 769 769 771 772 772 773 774 776 778 778 778 779 781 782 782 785 787 789 793 786 776 779 781 777 779 775 777 788 784 777 777 779 780 780 780 780 781 782 783 784 786 787 790 791 792
796 796 795 794 794 793 792 792 791 790 789 789 788 787 786 785 785 784 785 785 786 786 785 787 787 787 789 774 758 757 757 756 756 754 757 760 761 763 763 765 767 768 769 770 770 771 772 773 773 775 776 776 777 780 783 784 785 785 788 794 795 793 787 777 779 781 777 778 777 778 786 784 777 777 778 780 780 781 781 781 782 783 784 786 787 789 791 793
795 795 794 793 792 791 791 790 789 789 788 787 786 785 783 782 782 782 783 783 785 785 786 787 785 787 785 768 756 756 755 755 753 753 756 757 759 761 763 765 767 769 770 770 771 771 773 774 775 776 776 777 779 781 785 788 789 789 789 795 797 792 789 783 779 780 779 779 779 780 784 783 778 778 779 781 781 784 784 783 783 783 785 786 787 789 790 794
794 793 792 791 790 790 789 789 788 787 786 786 784 782 781 779 778 778 780 782 783 783 785 784 785 788 777 759 755 755 753 753 752 752 753 754 758 759 761 765 767 769 770 771 772 772 773 775 777 777 777 780 782 781 789 795 794 793 790 793 798 794 791 788 781 780 780 779 780 781 783 781 778 779 781 782 783 785 786 785 785 784 785 787 787 788 791 795
792 791 791 790 789 788 788 787 787 786 785 784 783 781 779 776 775 775 778 780 782 784 785 784 786 783 766 754 755 753 752 752 751 752 752 753 757 759 760 763 766 768 771 772 773 774 775 777 778 780 781 784 784 782 790 794 791 792 791 791 796 796 794 791 784 781 780 779 780 783 784 781 778 779 781 783 784 786 786 785 786 785 786 788 787 789 793 796
790 790 789 788 788 787 787 786 786 785 784 783 781 779 778 777 776 776 778 779 779 778 776 776 776 767 755 753 754 752 751 751 751 751 751 753 756 758 760 761 764 767 770 773 775 775 775 779 782 783 783 784 784 781 783 784 782 785 787 786 788 790 791 790 785 782 781 780 781 782 782 780 777 779 784 785 785 787 788 787 787 787 788 788 788 791 795 797
789 788 788 787 786 786 785 785 785 784 783 782 781 778 777 777 775 775 779 778 771 766 764 765 764 757 751 753 753 752 751 749 750 750 750 752 754 757 760 762 765 767 768 771 774 775 774 779 782 780 779 781 782 780 779 781 782 783 786 787 788 788 786 785 784 783 783 782 783 783 781 781 782 786 790 789 788 790 790 790 789 788 789 790 790 793 796 798
787 786 786 785 785 785 784 784 783 783 782 781 781 779 776 774 772 773 776 773 765 762 762 761 761 757 751 752 753 754 754 751 749 749 750 751 752 756 759 762 766 770 770 770 772 774 774 778 778 775 775 777 780 782 780 783 784 783 784 786 791 790 784 783 784 785 785 784 787 789 787 788 792 794 794 791 790 792 791 791 790 789 790 791 792 794 796 798
786 785 784 784 784 783 783 782 782 781 781 780 780 780 777 774 773 773 774 770 761 759 759 758 761 757 750 752 754 756 759 758 751 747 748 751 751 753 757 761 765 769 772 771 773 777 779 779 776 775 776 778 783 785 782 782 785 784 785 786 788 789 786 786 787 788 786 785 790 792 792 796 798 796 796 795 793 793 793 792 790 790 791 792 794 795 796 798
784 783 783 783 782 782 781 781 780 780 779 779 779 778 775 774 773 773 774 771 760 753 753 755 756 753 750 751 752 756 759 758 754 748 746 750 750 751 754 759 764 768 772 770 770 778 781 776 773 777 777 777 785 788 783 783 786 785 786 785 786 789 788 785 789 792 790 790 790 789 792 798 798 796 796 797 797 796 795 793 791 792 792 793 795 795 796 798
783 782 782 781 781 781 779 779 778 778 777 777 777 775 773 773 773 773 772 769 760 750 746 746 747 747 745 745 747 752 754 753 751 746 744 747 749 750 752 756 762 768 770 767 767 772 773 769 771 778 776 774 782 788 783 782 787 788 786 783 784 787 784 782 788 791 791 794 790 785 792 799 800 801 800 797 798 798 797 796 796 796 795 793 794 794 796 797
781 781 780 779 780 779 778 778 776 776 776 775 774 773 773 773 772 773 771 765 756 748 742 741 743 740 736 740 744 745 748 748 745 742 741 743 745 747 751 753 758 765 768 768 768 767 767 768 771 775 775 774 780 786 783 779 785 790 786 781 780 781 781 784 789 790 790 794 791 787 795 804 803 803 804 801 800 801 800 800 800 799 798 795 794 795 797 798
780 780 779 779 778 777 777 776 775 776 775 773 773 772 773 772 772 773 770 763 751 741 738 738 737 731 729 737 740 741 748 745 736 737 739 740 740 742 750 753 754 761 766 766 766 765 767 771 769 771 775 776 778 781 782 779 784 789 781 777 779 779 781 786 788 789 790 793 795 793 794 803 804 802 805 806 803 803 802 801 802 801 800 799 798 798 798 799
778 778 778 777 777 777 777 775 775 776 773 772 771 771 772 770 771 772 766 760 748 733 733 738 734 726 725 731 733 738 745 738 731 736 735 737 739 738 746 753 753 759 762 763 767 765 766 772 772 772 775 777 777 778 780 778 782 784 775 774 780 780 781 784 786 788 790 791 795 794 789 795 803 803 806 807 802 803 803 804 805 804 804 803 802 801 799 799
776 776 776 776 776 776 775 775 775 773 771 771 769 771 771 768 770 770 762 755 741 725 726 733 730 725 726 729 729 731 732 728 731 735 731 734 738 737 745 750 750 755 757 759 766 764 763 769 771 771 774 777 774 771 775 777 777 777 775 776 779 778 779 781 783 789 794 794 792 792 790 794 803 804 804 803 800 805 808 807 808 807 807 807 805 804 803 801
775 774 775 774 774 774 774 774 773 771 769 769 770 769 768 769 769 765 759 749 732 720 721 725 726 726 729 732 731 727 725 726 729 730 730 735 736 737 743 746 746 753 754 753 758 762 761 761 761 764 769 771 768 768 771 773 773 774 778 781 780 782 785 785 786 788 795 795 789 791 793 794 803 807 805 805 806 811 812 808 810 810 809 809 808 807 806 806
773 773 773 773 773 773 772 772 769 768 768 768 769 767 767 769 764 761 762 748 729 723 722 724 727 728 731 734 735 730 727 728 728 729 733 735 735 737 741 743 744 751 755 753 755 759 759 757 757 759 761 761 764 769 771 769 770 774 778 780 782 785 786 787 789 788 793 795 791 798 802 794 799 809 811 812 813 814 812 809 810 810 810 810 810 810 810 810
771 771 771 771 771 771 771 770 766 766 768 768 767 766 766 765 759 760 757 738 727 727 724 726 728 727 730 732 732 732 730 729 728 730 735 736 738 741 742 746 748 753 759 758 758 760 760 760 759 756 755 757 762 770 774 772 772 773 773 776 783 787 787 787 790 791 796 798 794 804 807 794 795 809 814 813 811 811 812 812 812 812 813 813 812 812 812 812
769 769 769 769 769 769 768 767 765 766 767 766 767 765 762 760 759 758 745 729 730 732 726 729 729 727 731 728 727 729 727 729 729 728 732 735 739 741 741 745 748 756 765 762 761 764 762 760 758 755 754 754 759 770 777 777 775 773 772 775 783 791 796 798 797 796 796 795 798 805 803 796 804 812 811 811 811 812 813 813 813 813 814 814 815 815 814 814
767 767 767 767 767 766 765 764 765 766 766 766 767 761 757 761 759 749 738 733 735 733 729 732 728 726 730 728 727 727 726 729 729 728 729 732 738 741 741 741 740 748 760 761 763 767 765 761 757 757 756 750 753 765 776 779 776 773 771 771 779 791 803 809 809 806 800 795 800 803 798 802 814 815 810 812 813 813 814 813 813 814 814 815 816 815 815 815
765 765 764 764 763 762 762 763 764 765 766 767 763 758 759 763 754 740 737 737 733 730 733 733 728 726 728 727 725 724 727 730 727 728 731 734 740 742 742 743 740 742 752 760 765 765 768 767 757 754 754 749 750 755 761 769 772 771 768 766 772 780 789 799 801 798 797 797 800 801 801 807 814 813 811 812 813 813 814 814 813 814 815 815 816 815 816 817
763 762 761 760 758 757 757 760 762 763 767 765 758 756 759 758 747 739 738 736 731 731 734 732 729 730 728 726 724 720 723 728 727 728 732 734 738 741 741 741 741 742 748 759 765 762 765 763 748 746 748 745 749 752 752 762 771 774 770 769 772 768 773 794 802 796 794 795 801 810 814 814 814 813 812 811 813 814 813 814 814 815 816 816 816 818 819 820
761 760 758 756 754 753 754 756 759 762 765 761 754 755 755 747 741 739 736 735 733 735 737 733 727 729 730 727 725 721 719 724 727 730 734 735 735 738 738 737 738 740 742 751 760 762 764 759 747 747 749 743 744 748 750 755 764 773 774 772 771 763 768 790 806 808 799 794 810 825 821 815 813 813 812 811 813 814 814 815 815 816 817 817 819 821 822 823
759 757 755 753 751 751 752 753 756 760 762 757 750 751 748 740 737 736 733 733 734 736 744 741 727 725 729 727 725 723 720 723 727 730 736 738 736 736 735 734 735 735 735 740 749 754 755 754 750 748 748 746 742 744 749 749 753 767 772 767 767 769 770 777 793 806 801 799 818 829 821 814 811 810 812 814 814 814 815 816 816 817 818 821 823 824 825 826
758 756 753 750 749 749 751 752 755 758 759 753 749 746 742 738 735 733 733 734 733 736 746 746 731 722 723 725 725 721 718 724 728 730 736 738 736 733 732 733 734 732 730 732 740 747 748 751 753 747 745 749 744 744 755 754 749 754 757 756 762 772 775 778 789 797 799 811 826 827 823 818 808 806 811 812 812 813 815 817 817 819 822 824 826 827 828 828
757 756 751 748 747 747 749 752 754 757 755 751 749 744 739 737 734 732 734 734 733 738 744 744 735 726 722 720 721 720 718 723 728 731 736 737 734 732 730 730 732 732 729 728 736 746 748 751 754 749 746 749 746 748 758 760 755 752 752 756 760 764 767 773 781 780 787 814 826 824 829 819 799 799 804 805 808 811 813 818 819 822 825 827 829 830 831 831
755 754 749 747 747 747 749 752 753 755 754 749 747 743 738 737 735 733 734 733 734 738 742 740 737 731 724 719 718 718 719 722 725 729 734 732 733 734 730 728 730 731 732 731 735 744 746 748 753 752 750 750 750 750 752 752 755 756 757 760 763 766 766 768 780 782 784 804 817 823 828 812 794 795 797 798 805 808 812 817 821 824 827 829 831 833 833 833
753 750 747 747 748 748 750 752 753 753 752 748 746 743 739 736 735 733 731 732 734 735 736 736 736 732 728 724 719 715 718 723 724 727 731 730 730 733 729 727 727 729 734 736 736 740 742 744 751 754 752 750 750 752 750 747 747 749 752 755 757 763 764 768 786 791 785 794 806 811 810 801 797 798 794 797 803 806 811 817 821 826 829 832 834 834 835 834
751 748 747 748 749 749 750 750 751 751 748 746 743 741 739 736 735 733 731 731 733 733 732 732 732 730 727 725 720 713 717 724 724 724 728 727 728 730 729 728 727 725 730 735 735 736 738 741 748 754 753 752 751 754 755 751 746 745 750 753 752 752 755 763 778 787 790 798 801 798 796 796 801 799 794 798 803 806 811 816 822 828 830 833 835 835 836 835
750 748 748 750 750 750 750 749 750 750 746 743 741 738 737 736 736 735 733 733 734 733 734 731 727 725 722 719 717 713 714 724 728 725 726 728 728 729 728 729 729 725 726 733 735 735 738 742 750 755 754 751 749 751 753 751 749 749 755 761 758 752 752 757 764 772 787 798 795 792 795 797 800 800 797 800 805 809 814 817 823 829 832 834 836 836 836 835
749 748 750 752 752 751 749 747 748 748 746 743 741 739 737 736 737 735 733 734 733 733 735 731 722 719 718 715 714 713 713 722 729 727 727 729 728 727 728 728 727 724 724 729 730 731 739 746 750 756 761 760 756 755 753 750 751 757 764 768 765 760 758 761 766 768 780 794 789 782 790 797 798 800 801 804 809 814 818 821 824 829 833 835 837 837 837 835
748 748 750 753 753 753 750 746 747 747 745 744 743 741 738 736 734 732 732 732 730 730 730 725 719 717 718 715 713 714 713 716 723 727 728 729 727 726 728 728 726 724 725 727 722 724 741 753 750 750 759 765 763 760 757 755 757 764 769 769 768 765 758 758 767 769 775 794 792 779 787 800 800 801 805 808 812 817 822 824 827 831 834 835 837 838 837 837
748 748 752 755 755 753 750 747 747 746 745 745 744 741 739 736 731 728 730 729 725 725 724 720 720 719 716 714 713 715 716 713 715 722 727 727 727 727 727 727 726 725 726 727 725 729 748 765 762 752 752 757 759 761 762 759 757 762 767 768 769 771 763 757 765 767 772 789 792 781 788 802 803 802 806 809 813 818 823 826 829 833 836 837 839 839 838 839
748 748 750 753 753 752 750 747 746 747 745 742 741 738 737 737 733 727 727 724 721 722 721 719 723 722 715 711 713 717 720 716 714 720 726 727 728 728 727 726 726 725 725 727 730 733 744 760 769 767 767 768 768 770 770 766 763 766 771 771 772 774 766 756 759 765 770 779 785 785 791 797 798 800 805 809 813 818 823 827 831 835 837 839 839 839 840 840
748 746 745 745 746 747 746 744 743 745 745 740 738 737 736 736 734 728 724 720 717 718 718 716 720 722 716 712 712 716 720 720 722 725 726 726 727 727 727 727 726 727 727 729 733 735 741 758 770 772 774 777 775 773 773 775 778 781 781 779 779 778 768 759 764 773 769 765 771 781 789 791 793 799 804 808 812 818 825 829 832 836 838 838 839 840 841 842
747 746 743 741 742 742 741 740 741 742 743 741 739 738 737 734 730 727 725 722 717 715 716 716 718 720 719 713 711 714 717 719 724 727 725 725 726 726 727 729 729 728 726 729 736 738 744 762 771 768 771 778 778 776 776 777 782 785 787 786 784 784 779 774 779 786 779 769 769 778 789 797 802 805 809 813 816 822 828 831 833 837 838 839 840 841 844 845
747 746 744 742 742 741 740 739 740 741 742 742 739 737 736 733 727 725 726 725 719 713 714 718 719 720 719 713 709 714 718 716 715 719 721 722 723 724 726 727 728 728 728 732 738 737 742 761 771 766 769 779 783 781 779 777 780 785 790 790 786 785 786 784 786 789 785 780 779 783 792 805 813 815 816 820 823 826 830 834 837 839 839 840 841 843 846 847
747 746 745 745 742 740 740 740 740 742 741 740 738 736 734 731 728 726 725 725 724 718 715 716 716 715 715 715 715 718 721 717 713 715 719 719 721 723 725 726 727 727 729 736 739 737 742 761 771 763 765 779 786 786 784 780 777 782 791 795 792 789 790 789 789 790 785 782 786 792 795 805 815 819 820 824 827 830 835 838 839 840 841 842 844 845 848 848
748 746 746 746 743 739 739 739 739 741 737 733 733 733 730 728 729 729 726 723 723 721 719 718 714 712 716 719 720 720 719 720 721 722 723 723 725 728 729 731 731 728 730 737 744 745 746 755 763 759 764 781 786 785 785 777 769 777 793 801 800 796 794 793 793 793 787 783 788 793 797 806 816 819 822 828 832 835 839 840 841 843 844 845 846 847 849 849
Wind_Speed
12 13 13 12 11 12 12 12 13 13 12 12 12 12 12 13 13 13 13 13 14 14 14 14 15 15 15 16 16 15 17 18 19 17 13 19 15 11 13 10 3 8 12 12 16 15 10 7 8 9 7 4 0 2 3 1 1 2 2 2 3 3 3 4 4 3 0 3 5 7 7 5 1 3 2 3 6 6 4 3 3 4 5 5 7 12 16 17
12 12 12 12 12 12 12 12 13 13 12 12 12 12 13 13 13 13 13 13 14 14 14 14 15 15 15 15 15 16 18 19 17 17 23 23 17 17 18 14 9 10 15 16 19 16 10 6 7 8 4 2 0 1 3 1 2 2 2 2 5 4 2 2 3 2 2 4 7 9 5 3 1 3 0 1 4 4 5 3 1 2 5 7 10 14 15 16
11 11 11 12 13 13 13 13 14 14 13 12 12 13 13 13 13 13 13 13 14 14 14 14 15 15 15 15 15 15 16 14 9 11 18 15 11 16 19 20 15 13 15 15 18 17 14 13 13 9 3 2 1 1 3 2 3 2 2 5 5 3 3 3 3 5 4 4 8 8 5 3 3 1 1 1 5 5 5 3 2 3 6 9 10 13 15 15
10 10 11 11 12 12 12 13 13 13 13 13 13 13 13 13 13 13 13 13 13 14 14 14 15 15 15 15 14 14 12 7 4 2 1 3 2 4 7 17 17 16 15 14 16 14 15 16 12 5 3 3 1 2 5 4 3 2 3 5 2 2 4 4 4 6 4 2 4 5 5 5 4 2 1 4 6 3 5 5 3 3 9 13 11 13 14 15
11 11 11 11 12 12 13 12 12 12 12 12 12 12 13 13 13 13 13 13 13 13 14 14 14 15 15 14 12 11 6 3 1 2 6 6 7 11 7 9 17 19 17 17 15 13 15 14 8 3 2 3 4 3 5 5 3 3 4 4 2 2 4 4 2 3 1 1 2 4 5 4 3 3 4 6 4 2 2 4 2 3 11 14 12 13 13 13
12 11 11 12 12 13 14 14 13 12 12 12 12 12 12 13 13 13 13 13 13 13 14 14 14 15 15 13 9 6 3 3 2 3 3 5 11 13 8 6 17 21 21 20 16 14 13 10 7 5 3 3 6 6 3 5 4 4 4 3 5 5 6 4 1 2 1 1 4 3 3 2 2 3 3 4 1 2 5 5 2 8 12 14 13 13 12 13
12 12 12 13 13 15 15 14 14 12 12 12 12 12 12 12 12 12 13 13 13 13 13 13 13 14 14 10 4 2 1 7 8 5 7 15 18 14 7 6 19 25 24 20 16 12 10 10 9 6 6 4 5 7 3 5 4 4 4 3 5 5 7 5 3 3 2 4 6 3 2 3 3 1 1 3 3 4 4 2 9 12 13 14 13 12 12 12
12 12 13 14 14 15 14 13 14 13 12 12 12 12 12 12 12 12 13 12 12 12 12 12 12 12 13 8 1 1 2 10 16 14 16 19 17 13 5 10 22 27 24 22 18 12 10 12 10 5 6 5 4 7 4 5 5 6 7 3 3 4 5 5 5 5 3 5 5 2 2 4 4 1 3 4 4 3 2 8 11 12 13 12 11 12 11 12
12 12 13 14 14 14 14 12 12 13 13 13 12 12 12 12 12 13 12 12 12 11 11 11 11 11 11 6 1 2 5 7 11 13 14 13 10 8 7 13 25 26 20 21 20 16 11 10 10 6 6 5 6 8 6 6 5 7 9 4 4 5 3 4 5 3 2 3 3 3 2 2 2 1 3 3 2 2 5 8 10 11 12 11 10 10 10 10
12 13 13 14 14 14 14 13 13 13 12 13 12 13 13 12 12 13 12 12 11 11 10 9 9 8 8 3 1 3 5 3 5 6 5 6 4 7 12 16 27 26 18 17 18 16 9 8 8 4 3 4 5 6 6 7 3 5 9 6 7 6 4 3 5 4 3 3 6 6 2 2 1 1 3 1 1 4 6 7 8 9 9 10 9 8 9 10
12 13 14 14 14 14 14 14 14 13 13 13 12 13 14 13 13 12 12 11 11 10 8 8 8 6 4 2 2 5 2 2 1 7 9 5 3 11 14 21 28 25 20 14 14 16 7 7 9 3 1 4 6 5 4 6 2 4 6 4 6 5 4 5 6 4 3 2 4 6 3 3 2 2 2 2 4 5 6 7 7 7 8 8 9 8 8 8
13 13 14 15 15 15 14 14 14 13 12 13 13 13 14 14 14 13 12 11 10 9 7 7 5 2 1 1 6 12 6 1 3 5 10 7 2 8 10 22 26 22 23 13 11 14 7 10 12 3 1 5 7 4 3 5 3 3 5 3 4 2 4 6 4 2 2 2 3 6 5 4 4 3 1 3 7 6 5 6 6 6 6 7 8 7 7 8
13 14 15 15 15 15 14 14 15 14 12 12 13 14 14 14 14 13 12 11 10 8 6 6 3 3 2 2 9 14 13 10 7 7 5 4 2 3 6 20 20 14 18 12 12 14 8 11 11 3 2 4 4 2 2 3 3 3 3 3 2 1 4 2 1 1 3 2 3 5 4 4 4 2 4 7 9 8 6 6 6 5 5 6 7 6 6 8
13 15 16 15 15 15 14 13 14 15 13 13 14 15 15 15 14 14 12 11 9 7 6 3 2 2 2 7 11 10 14 17 17 20 18 12 6 4 6 17 15 8 8 6 10 15 9 6 6 4 2 1 2 1 2 2 1 3 4 1 1 2 3 0 2 2 4 1 1 4 4 2 2 1 6 10 10 9 7 7 6 5 5 5 6 6 6 7
14 15 16 15 16 15 13 12 13 14 14 14 15 16 16 16 16 14 12 10 8 6 4 2 4 3 1 10 13 8 10 15 20 25 21 13 9 7 8 14 12 8 7 5 6 9 9 4 3 5 2 0 2 2 2 2 1 2 3 3 1 3 2 2 1 3 3 2 1 4 3 2 2 0 4 8 9 6 3 5 5 5 5 5 5 5 5 5
14 15 16 15 15 14 13 12 12 12 14 15 16 17 18 18 17 16 12 10 7 4 3 3 6 5 2 6 6 4 6 8 13 16 16 17 13 9 11 12 9 8 6 3 4 4 6 5 1 2 1 2 2 2 3 2 2 1 2 3 3 4 2 2 1 2 2 2 1 3 1 1 1 1 3 7 8 5 2 4 5 5 5 4 4 5 4 4
13 14 16 16 14 13 13 13 14 13 14 15 16 18 18 17 15 13 9 7 5 6 5 3 6 5 5 6 5 4 4 6 8 8 12 19 17 13 14 9 5 7 5 3 3 3 5 4 2 1 1 1 2 3 5 5 4 2 1 2 2 3 2 1 1 1 1 2 4 3 2 2 1 3 3 7 8 7 5 5 5 5 3 3 3 4 3 4
13 14 15 15 13 12 12 13 15 14 14 14 17 19 14 8 4 4 7 9 7 7 4 2 4 4 4 6 4 2 2 5 6 6 9 16 17 17 15 8 6 9 7 4 3 3 3 1 1 3 3 2 3 5 6 5 5 5 5 4 2 2 2 1 1 1 1 1 4 5 5 6 4 2 3 6 7 8 6 4 4 5 4 3 4 4 2 4
14 14 14 14 13 11 12 13 14 14 14 14 16 14 4 5 6 8 10 10 7 4 3 4 7 2 1 3 2 4 9 9 5 5 9 14 16 15 12 9 9 9 7 5 4 4 4 3 3 5 6 5 5 6 6 4 6 7 6 5 4 4 2 1 1 1 2 1 5 7 7 7 6 1 4 4 6 7 7 5 4 5 4 4 5 2 3 4
15 14 13 13 12 11 12 12 13 13 13 14 15 9 1 3 3 5 5 7 7 3 2 5 10 4 4 1 3 10 11 5 2 3 11 17 18 14 8 7 7 4 6 7 6 4 4 6 7 7 7 7 6 6 5 3 5 6 5 4 4 3 3 1 1 2 2 1 3 4 6 5 2 4 6 2 4 7 8 7 7 6 4 4 5 2 3 4
14 13 12 12 11 11 11 12 11 11 12 12 12 6 1 1 1 1 2 8 12 11 9 7 11 10 9 4 5 11 9 3 3 2 12 17 17 14 6 6 7 4 4 5 6 3 4 7 7 7 7 8 7 6 5 5 4 5 5 4 3 3 3 1 0 2 1 2 0 1 3 1 5 6 7 3 4 6 6 8 9 8 6 4 4 2 2 3
13 13 12 11 11 11 11 13 11 11 12 12 9 4 3 2 3 4 2 5 10 15 16 11 10 14 15 12 8 4 4 5 7 4 10 16 13 10 6 7 8 6 4 5 5 5 5 7 6 6 7 7 5 4 6 6 4 3 3 3 3 3 2 1 1 2 1 1 1 2 4 4 6 5 7 6 1 1 2 5 7 7 7 5 3 2 1 4
13 12 12 11 10 11 11 11 12 13 14 12 8 6 4 3 3 8 3 3 6 8 12 12 12 12 12 10 10 6 3 6 6 5 10 16 9 7 9 8 8 6 7 9 8 7 6 6 7 7 7 9 6 4 6 5 2 2 2 3 3 2 2 3 2 2 1 1 1 6 7 5 5 3 6 8 3 3 6 3 2 3 3 4 3 1 1 4
13 13 12 11 10 11 10 12 14 13 11 9 11 10 5 1 7 9 2 3 5 4 8 11 10 9 10 8 9 13 7 6 6 4 12 17 7 6 9 8 8 6 7 9 10 9 6 6 9 8 7 9 7 6 7 5 3 1 2 4 3 3 3 2 2 1 0 2 2 7 7 4 5 4 5 6 4 5 8 8 7 7 5 1 3 4 4 4
14 13 11 11 10 10 11 13 11 7 5 7 9 6 2 4 8 5 1 2 4 3 4 7 6 7 10 9 11 12 6 6 8 5 10 16 10 7 7 5 6 7 8 9 9 8 5 6 10 10 7 8 9 7 7 7 5 2 4 6 5 5 4 1 2 0 2 3 3 3 3 3 3 4 5 6 4 6 7 8 9 8 8 5 1 5 6 6
13 12 11 11 10 11 12 9 3 3 6 6 6 1 2 7 9 3 3 2 3 2 3 5 5 8 11 10 10 10 4 5 10 10 10 14 11 6 6 4 1 6 9 8 6 4 3 6 8 10 9 9 9 7 6 6 6 4 4 6 5 4 3 3 3 1 2 2 1 1 2 3 3 2 5 5 3 6 7 9 10 9 8 7 4 4 5 6
12 11 11 10 9 9 8 4 3 7 6 3 4 3 6 13 8 4 3 1 3 2 4 2 2 9 11 10 13 10 3 2 6 10 11 14 11 3 7 8 3 5 5 4 5 2 5 8 6 8 9 7 7 7 6 7 6 3 3 7 8 6 6 6 4 3 2 0 2 0 2 3 4 2 4 4 1 7 9 10 10 9 9 8 7 5 4 6
12 11 10 9 8 7 7 8 9 8 6 4 4 7 13 14 3 5 2 0 2 1 4 2 2 7 6 9 16 8 2 4 6 7 11 16 11 1 6 10 7 9 6 6 7 3 5 9 9 10 8 5 5 5 7 9 5 2 3 6 7 5 6 4 3 3 0 1 4 3 2 3 3 1 3 2 3 7 9 9 9 9 9 9 8 8 7 6
11 11 11 9 8 9 9 11 11 11 9 6 8 13 16 8 3 3 1 1 2 1 4 4 3 5 5 9 12 6 1 3 2 5 9 13 8 1 4 6 7 11 6 4 6 3 2 7 10 11 8 6 6 4 9 11 5 2 6 6 4 3 2 2 2 2 1 3 5 3 1 2 3 1 2 3 4 5 6 7 7 8 8 8 9 9 8 8
11 11 12 10 10 9 9 11 15 13 10 8 12 16 10 1 4 1 1 1 2 1 3 2 2 4 8 10 8 6 2 1 2 6 7 7 5 1 2 3 4 8 4 1 4 3 1 2 4 5 5 6 6 4 6 8 5 7 8 6 5 3 2 1 1 1 3 4 2 2 3 2 3 1 1 2 2 3 4 5 6 8 8 8 8 8 9 9
12 11 12 12 10 8 7 8 7 3 2 9 15 13 2 4 1 1 3 2 2 2 2 2 3 6 11 10 7 7 4 2 5 11 8 6 5 3 4 4 3 5 5 3 4 1 2 4 3 3 3 5 6 4 1 1 4 6 5 4 5 3 1 2 1 1 5 4 1 2 3 2 2 2 1 2 3 4 4 4 6 7 8 8 8 8 9 9
13 11 10 11 11 11 10 7 4 2 7 15 15 6 3 2 2 3 2 3 1 2 3 1 1 6 9 6 5 9 7 4 6 11 11 9 8 6 6 7 5 6 6 6 5 2 2 3 1 1 4 6 8 6 2 1 4 5 4 6 7 4 3 4 3 3 4 2 1 2 3 0 2 2 3 4 5 5 4 5 6 7 9 9 8 8 8 8
13 12 11 12 13 16 18 16 13 13 16 16 9 2 2 1 3 4 3 2 1 2 3 3 3 5 10 5 5 9 6 4 6 8 9 9 9 6 2 3 6 5 4 5 5 4 3 2 2 2 3 6 9 8 5 4 6 7 6 8 8 5 5 5 3 2 2 2 1 3 2 2 3 3 4 4 4 5 6 6 7 9 9 9 9 9 9 9
12 11 14 16 18 21 22 20 20 17 12 9 3 2 3 3 2 3 3 2 1 1 3 5 7 2 10 7 5 10 6 3 7 8 8 8 8 6 3 4 5 3 2 4 3 5 6 3 5 7 4 6 10 8 7 7 6 6 3 4 5 4 4 4 4 3 3 3 2 1 0 2 3 4 5 4 4 6 7 7 9 9 9 9 9 10 10 10
12 14 17 19 20 22 21 19 18 12 5 3 2 3 4 4 1 1 2 2 2 3 6 8 7 3 9 5 4 10 5 1 6 7 7 9 7 6 6 5 6 3 4 5 2 2 5 3 4 5 2 8 12 6 6 10 7 4 1 1 4 3 3 3 1 1 2 3 2 2 1 1 2 3 4 3 4 7 7 8 9 9 9 10 10 10 10 9
13 16 15 15 16 15 12 12 13 11 6 2 3 4 4 3 1 0 1 2 2 5 9 8 4 4 6 4 5 10 4 1 7 6 3 5 5 6 6 5 6 4 3 4 2 1 3 1 2 3 3 8 11 8 8 7 6 4 3 4 2 1 4 5 2 2 1 3 2 2 0 2 2 4 6 5 3 6 7 8 9 9 10 10 9 9 9 8
14 13 11 13 14 10 5 8 14 13 6 2 4 5 3 3 2 1 1 3 2 3 5 4 2 3 5 3 5 10 6 2 5 4 3 3 2 5 6 4 5 6 4 3 1 2 3 2 1 3 5 5 3 8 6 2 3 5 6 6 3 2 2 3 3 2 1 3 2 1 1 3 3 4 8 8 6 6 7 8 9 9 9 9 9 8 9 8
12 10 9 12 11 7 6 13 18 12 3 2 5 5 4 4 3 1 2 4 3 2 2 2 3 1 4 4 5 9 8 4 4 4 4 4 2 3 6 4 4 7 7 3 1 1 2 2 1 2 4 3 2 6 6 1 0 2 6 6 3 2 3 2 2 3 4 3 2 1 1 4 5 3 8 12 10 8 8 7 9 9 9 8 7 8 8 8
10 6 5 4 4 5 12 18 16 6 1 4 6 5 3 2 3 2 2 4 4 2 0 3 3 3 2 3 5 7 6 5 6 4 3 3 1 2 4 2 3 7 7 4 2 1 0 2 2 0 1 4 4 5 5 5 1 2 5 6 1 1 3 2 2 2 4 4 2 2 1 4 5 3 8 13 11 10 9 7 8 9 9 8 7 7 7 6
6 4 0 2 2 11 18 16 8 2 2 3 4 3 1 1 3 2 1 2 2 1 1 3 3 3 4 2 4 5 3 4 6 3 2 3 1 0 3 1 3 5 4 2 2 1 0 1 3 2 1 3 4 3 5 8 6 4 6 6 2 1 2 2 2 2 2 4 3 4 2 4 2 2 7 12 11 10 10 8 8 9 9 8 7 6 6 5
4 3 1 3 8 17 18 10 3 2 3 2 2 2 2 2 3 4 2 1 1 2 4 5 5 6 5 3 3 4 3 3 4 2 1 3 2 1 2 2 4 6 4 1 2 2 0 0 2 3 3 4 2 0 3 5 5 6 6 6 4 4 4 5 3 1 2 3 4 4 3 3 1 1 6 10 11 11 11 10 9 8 9 9 7 7 6 5
3 1 2 6 15 18 10 3 1 2 2 2 2 1 2 1 2 4 3 1 2 3 4 5 7 8 6 5 4 3 4 2 2 2 2 2 2 1 2 2 3 6 6 3 1 2 1 1 2 2 2 1 1 1 1 2 3 4 3 3 4 4 4 5 5 3 2 2 2 2 2 1 2 1 7 11 11 11 12 11 10 9 8 9 7 7 6 6
2 1 3 10 17 9 1 1 2 2 3 1 1 2 1 1 0 2 3 0 1 2 2 4 6 6 6 6 3 3 4 2 1 2 2 2 2 1 2 3 3 6 6 2 1 3 1 1 2 2 2 2 2 2 2 2 3 4 3 1 2 2 2 3 3 4 4 3 3 3 2 2 2 3 8 12 12 11 11 11 11 9 7 8 7 6 6 6
1 1 3 10 11 1 3 3 3 3 4 1 1 2 2 1 2 4 4 2 3 3 2 5 6 3 3 3 2 3 3 2 1 1 2 2 2 1 1 4 6 5 3 2 4 4 2 0 2 3 4 4 4 4 3 2 2 2 3 2 1 4 6 4 3 3 3 2 2 4 4 2 4 7 9 11 13 12 11 11 11 9 7 7 6 6 5 6
1 1 3 6 6 3 2 1 0 3 4 2 1 2 2 2 3 7 6 4 6 6 4 5 4 1 3 2 2 2 1 1 1 1 1 1 1 1 1 3 5 3 1 1 3 4 2 0 1 3 4 4 4 4 3 3 3 2 2 2 2 3 5 5 4 4 5 3 2 3 3 3 5 9 11 12 13 12 11 11 10 8 8 7 6 5 6 7
1 1 3 3 3 3 2 2 2 1 2 2 1 2 4 3 3 5 7 7 8 8 6 5 3 1 3 2 3 3 3 2 2 3 2 2 2 1 1 1 2 4 7 7 5 4 3 2 3 3 3 2 1 1 1 1 3 3 3 2 2 1 1 3 4 4 4 6 3 2 5 9 10 11 13 14 13 12 11 11 10 8 8 8 6 6 7 7
1 0 3 4 2 2 3 4 3 2 1 4 3 2 4 4 3 2 5 5 6 6 5 3 1 1 3 2 4 3 2 3 4 5 3 1 2 1 2 2 2 4 8 7 3 2 4 3 3 6 7 4 2 2 3 3 3 3 3 3 2 1 1 4 5 4 6 7 4 3 8 13 14 14 15 14 12 11 11 10 10 9 8 7 7 7 8 8
1 0 2 2 1 2 3 3 4 4 4 3 2 2 2 3 2 2 3 3 2 2 3 2 1 0 4 2 3 3 3 4 4 3 2 2 2 2 2 3 3 2 2 3 2 1 5 3 0 4 8 7 6 4 5 8 8 7 7 4 2 2 0 3 3 3 5 4 3 8 13 11 11 14 14 13 12 11 11 11 11 9 8 8 8 9 10 8
1 1 1 1 1 1 2 2 4 5 5 3 2 2 2 3 2 3 2 2 3 1 2 1 3 3 4 3 3 4 4 5 3 1 2 2 2 2 2 3 2 3 2 3 3 1 3 3 2 4 8 10 9 6 6 8 9 10 10 8 5 3 3 5 3 1 1 1 3 13 14 6 4 8 11 12 12 11 11 11 11 10 9 8 9 10 9 7
1 1 1 1 1 1 1 1 2 4 3 2 3 2 2 3 3 2 1 1 3 3 1 2 2 3 1 1 5 4 2 3 5 5 4 3 3 1 1 2 1 3 3 2 2 1 1 3 2 2 6 7 8 7 7 7 10 12 11 10 8 6 6 6 5 3 2 4 8 14 14 6 3 6 11 12 11 11 11 11 11 10 9 9 9 10 9 7
3 3 3 1 2 1 1 1 2 3 2 2 3 2 2 3 2 1 1 2 3 3 2 3 3 4 6 8 9 6 2 2 5 6 4 3 3 2 1 1 1 2 3 2 1 2 2 4 2 1 4 3 4 5 6 7 11 13 11 10 9 6 5 5 4 2 2 9 15 13 9 6 5 8 11 11 11 12 11 10 10 9 9 9 9 10 8 6
4 4 4 2 2 1 1 1 2 2 2 2 4 3 2 2 0 1 1 1 2 1 3 1 1 4 7 9 8 4 3 6 7 7 6 6 8 6 5 5 4 3 3 2 2 2 2 5 3 1 4 3 1 1 2 3 6 7 5 6 6 4 4 5 5 4 2 7 11 6 4 7 9 10 11 11 11 11 9 8 9 9 9 10 10 10 8 6
Wind_Direction
324 320 322 327 327 328 326 325 324 325 326 326 327 326 325 327 326 328 329 329 330 332 334 334 334 334 334 333 333 330 326 322 316 312 271 256 267 259 255 265 245 183 183 165 155 141 121 126 123 135 137 112 101 141 156 173 136 187 172 176 203 202 205 197 198 193 230 332 321 336 349 325 326 89 115 107 84 100 119 89 94 81 61 77 108 125 135 135
325 321 320 324 327 326 327 327 324 325 325 323 324 324 324 325 324 326 327 327 329 331 333 335 333 334 334 333 331 326 324 320 312 290 267 267 275 268 261 254 242 199 179 165 162 152 135 143 141 141 130 121 125 114 172 176 179 195 130 200 216 194 202 205 211 225 255 317 323 326 341 325 328 98 132 186 115 141 164 132 116 120 93 101 119 131 136 135
323 323 323 325 326 321 321 323 322 324 324 322 322 323 324 323 323 324 325 326 327 330 331 333 332 333 333 331 329 324 323 320 304 275 274 283 274 265 257 246 237 208 194 180 171 170 166 160 151 141 113 125 120 140 167 164 190 195 160 218 222 196 246 234 226 243 246 301 317 321 339 333 311 87 320 190 141 178 199 181 188 186 153 136 132 138 139 138
325 326 326 327 328 322 320 319 319 319 319 321 320 321 320 321 323 321 323 325 326 329 329 332 331 331 332 330 326 322 324 307 269 247 328 62 48 342 268 238 225 207 202 185 171 173 165 151 144 134 118 130 105 150 172 181 181 169 195 225 202 136 257 235 213 246 254 269 294 313 331 339 331 332 244 174 151 196 231 221 220 182 160 151 144 144 144 141
329 328 328 328 330 329 325 321 320 318 316 318 317 317 317 318 319 318 321 323 325 327 328 330 330 331 331 328 327 327 318 272 305 124 115 83 21 5 349 229 208 197 188 174 160 148 145 141 135 118 118 139 146 161 186 189 161 173 212 253 229 168 259 256 201 242 237 176 257 312 320 340 334 298 214 190 166 169 266 280 303 108 146 151 147 147 146 144
326 327 328 327 329 327 322 318 318 319 314 314 316 315 314 315 316 316 318 322 324 325 328 329 330 332 329 329 334 335 283 257 359 119 145 347 334 346 350 217 191 183 177 167 151 140 137 141 156 156 151 148 169 183 175 171 176 206 216 257 241 223 248 273 22 209 182 290 287 304 311 332 299 290 237 218 252 329 320 315 91 114 136 143 143 146 146 149
323 327 328 328 328 323 318 312 313 319 316 312 313 312 311 312 313 314 316 320 322 323 327 328 330 332 331 337 336 359 333 264 273 249 283 304 308 321 323 202 180 175 172 160 147 151 144 153 173 158 155 150 180 197 156 151 186 231 225 238 236 228 242 261 284 247 262 278 272 281 313 298 262 272 224 242 292 327 332 87 115 119 131 136 141 145 148 152
322 328 327 326 325 319 315 310 307 312 315 313 311 310 310 309 308 311 314 318 320 322 325 326 331 333 333 345 356 315 258 256 269 277 293 296 298 303 274 179 176 176 173 166 157 156 147 160 172 151 171 175 178 188 157 152 176 221 227 234 232 229 242 258 272 264 263 261 259 258 255 255 248 147 167 242 312 354 80 113 117 122 130 135 141 145 151 156
322 327 326 324 323 318 316 315 310 306 308 310 310 308 307 306 305 307 311 315 318 320 322 324 329 331 332 346 40 274 247 258 287 293 294 291 293 275 212 176 177 176 173 171 161 155 157 170 175 173 187 173 170 175 171 186 186 208 217 225 237 248 276 277 277 263 249 252 213 210 216 228 255 140 175 247 328 114 125 116 120 127 132 137 143 147 155 160
321 325 325 322 320 319 319 317 314 311 309 308 307 307 305 305 303 303 308 311 314 315 319 322 324 330 332 341 168 243 259 289 329 334 324 298 282 204 192 179 176 174 165 163 162 164 172 175 170 175 166 148 170 161 168 196 173 187 206 231 244 261 300 274 276 271 274 264 208 215 207 132 237 210 195 210 193 167 135 123 128 135 137 143 147 152 161 165
319 322 323 323 321 321 317 310 310 310 308 308 306 304 302 300 299 302 305 306 309 311 314 315 319 329 332 5 197 220 280 324 67 46 42 11 226 184 189 179 173 171 161 157 174 175 163 153 152 139 161 160 165 151 176 191 141 167 188 227 243 260 274 245 265 272 271 276 200 199 183 135 142 206 230 181 176 177 146 138 140 142 144 151 155 157 165 171
318 320 321 322 319 318 314 307 309 308 305 307 305 302 301 298 297 300 301 302 305 305 307 309 314 312 304 346 237 232 246 223 153 69 56 45 151 184 192 176 171 172 166 161 183 178 156 159 161 138 164 158 151 152 195 176 141 165 176 220 235 259 256 235 256 251 209 258 175 178 186 170 167 170 192 175 170 171 155 149 148 152 157 159 163 165 168 176
316 318 320 321 316 312 311 306 308 312 311 309 305 303 301 298 297 298 298 297 297 298 300 305 291 254 230 243 245 242 248 243 244 270 282 323 259 216 194 173 171 177 176 175 178 174 160 167 173 150 127 165 152 137 141 135 140 158 165 241 245 246 254 226 87 140 193 225 203 208 216 187 190 182 172 175 172 168 162 161 164 166 170 168 170 172 174 181
316 319 318 319 315 309 310 306 304 310 314 310 305 302 300 299 296 293 292 290 290 290 288 288 244 218 193 250 262 267 261 254 255 257 259 271 244 207 186 175 179 178 163 152 166 179 177 152 158 150 147 196 152 138 117 93 136 156 149 209 257 215 231 34 86 164 195 184 222 233 231 206 242 207 174 178 181 181 172 168 175 177 178 182 183 181 182 187
317 319 318 316 310 305 307 307 304 307 312 310 303 303 301 297 293 289 286 281 278 272 265 218 197 191 247 271 275 279 259 253 252 249 251 248 205 186 187 180 191 190 156 112 128 179 191 158 135 158 160 145 159 191 161 104 82 132 171 171 164 206 233 350 108 189 213 58 43 226 222 236 267 256 155 178 190 198 187 167 175 188 192 191 190 192 187 173
314 316 318 313 306 306 310 312 313 312 312 309 306 305 300 296 292 282 272 268 262 230 198 181 185 190 269 281 285 271 242 243 253 254 244 227 205 184 173 166 177 186 182 163 111 123 163 163 151 141 131 154 184 174 141 159 144 92 215 168 146 190 217 344 107 197 244 75 144 229 246 174 251 354 117 174 192 199 204 189 193 204 207 206 202 205 189 147
311 316 317 311 305 309 313 316 318 317 315 311 311 308 305 304 291 273 254 233 214 182 173 169 172 189 255 274 288 267 242 242 249 254 227 214 207 181 159 143 142 155 149 150 142 105 126 157 179 126 127 143 168 170 169 188 173 146 195 145 142 188 199 218 128 115 192 176 190 213 249 215 296 352 129 167 190 198 203 204 210 221 221 225 228 221 175 119
308 315 314 307 305 310 311 313 312 315 320 314 313 310 314 333 302 208 166 159 140 147 175 186 175 196 252 266 279 269 324 304 263 245 213 198 196 179 156 139 133 137 128 114 145 163 146 159 192 163 166 166 172 187 189 180 161 159 168 161 148 168 193 216 171 102 106 177 182 190 229 243 268 321 122 157 188 206 216 213 219 239 242 239 248 242 127 91
307 311 309 304 307 314 314 311 306 312 321 316 318 315 319 66 85 116 133 153 143 142 197 192 186 193 321 231 252 332 323 306 271 230 187 175 179 166 139 132 132 136 147 146 157 181 163 134 171 187 185 180 178 186 187 167 158 160 165 170 153 154 187 227 241 299 3 133 175 194 221 235 241 306 65 131 184 206 221 227 230 240 242 238 249 255 79 73
308 306 304 302 307 315 312 308 304 310 317 316 325 330 174 130 114 120 139 194 215 257 329 188 199 250 332 149 32 356 333 296 257 209 176 171 165 147 123 125 127 139 161 157 159 174 177 167 181 190 175 167 173 179 166 141 146 138 130 145 139 156 183 200 246 343 359 207 187 200 216 235 268 18 28 48 183 205 220 231 239 242 239 242 260 304 61 76
308 305 302 303 308 314 312 311 310 310 310 311 321 328 246 231 182 125 202 230 240 252 269 227 204 242 266 254 14 15 360 315 318 257 182 175 163 153 153 148 147 166 167 145 134 133 189 189 183 172 158 158 169 170 137 115 124 123 124 134 133 181 186 156 127 12 358 211 234 160 186 345 12 24 25 37 174 197 225 234 241 250 247 249 273 303 81 106
309 306 303 304 309 313 312 309 308 307 303 305 306 285 262 215 104 31 318 255 248 233 242 240 214 244 255 259 288 351 359 285 296 300 171 172 178 173 164 158 165 164 148 141 128 142 191 195 177 158 142 122 124 153 137 123 130 125 130 145 153 175 207 183 93 9 5 201 292 126 118 45 25 30 38 40 132 150 324 252 246 260 253 246 256 256 171 119
307 304 303 306 309 309 309 303 302 301 296 293 275 242 223 156 53 351 317 263 280 222 220 225 218 237 244 253 253 214 216 233 256 286 167 171 191 179 157 161 167 148 155 173 163 164 188 192 172 154 141 120 113 156 144 122 131 138 153 172 162 146 200 182 128 11 24 15 198 126 103 58 38 41 48 37 24 37 22 7 10 345 274 235 194 170 142 120
306 303 302 305 307 309 310 304 301 296 290 280 256 244 238 290 344 339 303 236 285 233 209 206 202 223 228 230 198 181 202 206 211 249 175 174 176 158 162 159 153 152 173 185 173 167 173 165 149 139 148 140 130 156 159 155 170 215 207 197 178 164 209 179 101 299 99 66 159 132 112 75 40 32 43 26 18 40 29 33 37 24 12 315 155 109 95 112
302 300 301 304 306 310 308 304 301 296 296 274 256 262 296 335 347 338 258 267 268 249 219 190 189 220 209 191 169 166 188 205 210 218 174 178 172 148 160 155 160 175 174 173 171 170 163 145 142 141 153 148 137 156 177 176 166 198 230 217 203 180 196 179 82 336 170 148 182 163 149 122 57 42 42 5 12 48 36 36 33 21 18 7 97 103 97 103
296 294 295 299 304 310 309 303 296 315 311 270 237 247 344 338 344 288 222 308 258 227 167 163 184 194 176 166 159 148 157 209 214 207 184 186 182 151 153 154 168 175 164 162 171 178 140 145 155 149 149 149 148 162 186 181 166 189 210 203 198 175 186 192 150 182 206 162 144 288 216 144 115 61 28 350 11 57 45 44 35 23 21 19 43 90 111 112
291 286 285 292 301 311 308 293 297 307 298 231 211 245 306 330 334 219 207 334 262 186 138 149 210 177 168 166 157 148 171 167 169 193 191 185 185 166 165 169 153 157 158 157 177 174 132 144 153 141 142 151 157 165 180 180 171 184 192 176 178 186 204 198 174 198 237 108 110 329 250 149 135 92 12 329 35 56 41 40 35 29 32 34 46 61 96 117
289 287 282 287 299 298 284 284 296 286 251 223 258 290 317 329 315 192 238 318 232 143 135 163 192 164 150 160 164 165 194 135 138 182 185 182 186 172 171 181 169 159 169 181 178 150 137 162 163 150 152 166 170 165 168 174 183 201 171 167 174 188 203 194 178 193 214 210 178 167 225 173 137 78 6 349 55 50 34 33 32 35 41 42 45 47 57 80
286 287 285 290 298 286 279 280 271 257 257 276 295 309 322 325 174 187 300 178 233 281 123 136 155 152 129 159 184 204 155 145 167 151 158 179 196 201 165 179 159 154 173 206 173 132 173 187 168 157 164 176 175 161 166 178 193 158 134 124 114 98 94 137 178 169 152 220 192 157 233 187 137 59 5 39 49 35 25 32 36 42 53 53 49 46 46 50
280 277 276 282 289 282 282 274 260 260 274 292 309 317 322 194 175 206 170 204 269 35 103 149 171 149 143 154 192 222 181 105 112 127 140 173 183 89 96 114 135 152 160 177 148 129 61 151 153 168 174 164 153 134 169 184 158 132 133 114 107 101 74 110 112 122 185 207 181 66 318 246 155 148 1 43 53 26 18 34 46 54 64 64 56 52 51 50
282 276 268 266 272 274 282 273 253 236 285 305 319 321 287 165 229 184 168 233 269 46 63 171 152 144 158 162 177 203 200 102 139 148 152 162 158 137 133 140 131 142 154 164 161 141 71 118 156 198 163 130 124 114 127 204 142 142 147 137 139 130 119 154 120 197 198 190 109 23 315 269 167 147 142 108 78 50 30 39 53 64 71 67 60 55 52 53
282 281 269 263 266 261 254 242 196 151 300 311 322 312 180 170 250 200 235 296 278 331 356 55 157 163 172 182 174 181 175 142 160 161 157 165 168 161 165 174 165 156 175 182 170 162 137 162 199 193 161 148 141 139 123 147 185 192 174 162 167 160 160 182 189 201 197 163 56 337 309 349 81 89 132 113 78 65 61 63 67 71 75 73 70 65 59 57
281 284 274 266 264 256 249 247 251 271 295 312 320 263 182 203 213 204 252 308 77 325 358 15 314 187 177 198 183 176 170 149 172 168 155 161 166 163 174 183 161 152 174 168 157 167 177 235 251 168 169 166 160 164 162 167 192 195 183 177 177 165 161 168 170 190 190 139 83 323 297 127 107 127 140 110 82 83 82 78 77 77 79 82 81 77 72 66
284 285 281 275 268 261 257 257 261 270 290 305 290 186 186 208 227 212 227 272 345 353 5 345 327 220 183 199 174 167 171 167 174 166 154 160 168 170 171 183 169 117 109 153 159 179 179 219 204 177 171 163 168 178 161 150 175 190 190 186 178 172 168 165 163 169 159 131 93 3 291 134 122 139 136 109 95 96 90 83 82 79 78 82 81 74 70 65
292 288 286 280 271 266 262 257 255 251 254 274 209 178 198 207 252 240 188 300 338 2 338 312 308 254 199 209 178 174 183 224 171 163 159 166 171 170 164 180 184 141 132 161 172 175 175 228 200 164 131 161 167 172 142 144 168 189 174 182 187 175 138 115 93 106 114 116 83 27 15 78 92 135 141 127 108 101 93 85 82 76 74 74 70 65 62 58
295 294 290 277 268 269 264 242 222 202 192 210 187 193 218 212 240 337 79 3 350 360 335 306 273 215 200 193 180 189 205 120 163 163 162 164 164 169 167 175 182 169 150 157 161 149 149 196 184 120 133 179 171 156 161 171 161 150 178 191 182 106 109 120 102 26 65 147 116 18 15 128 141 169 165 170 143 107 94 87 85 78 74 71 62 61 59 55
296 299 291 270 268 275 258 192 172 168 178 215 196 198 221 227 231 228 52 9 18 39 353 310 254 194 187 175 179 188 189 139 162 171 162 167 171 168 174 182 171 174 179 162 173 209 172 151 169 161 170 197 167 133 145 198 146 147 183 176 130 66 75 114 129 105 136 158 115 20 231 182 184 162 155 174 186 145 111 97 97 88 79 72 61 60 59 55
300 300 283 273 275 267 208 167 155 154 170 209 208 212 210 213 221 154 45 7 9 60 55 272 273 251 168 167 174 183 182 162 165 165 157 183 230 166 173 179 165 183 196 182 142 203 198 142 125 220 165 128 125 135 128 106 215 162 163 152 137 165 169 151 146 156 155 137 114 115 266 236 224 182 163 178 182 158 132 112 107 97 86 79 67 62 60 55
297 292 279 286 277 204 171 156 148 148 200 198 207 215 204 226 272 324 1 343 343 42 68 241 256 297 253 187 169 174 178 164 158 148 156 193 239 173 184 173 161 194 199 181 150 135 226 156 141 232 89 120 153 171 165 160 107 29 137 151 243 205 163 163 130 154 155 138 138 138 140 246 228 184 174 178 170 155 147 129 108 93 86 85 78 70 61 55
279 263 235 62 145 162 153 146 143 154 207 201 207 222 239 297 291 298 338 323 336 76 255 257 251 282 297 268 177 168 149 148 155 152 173 181 150 243 237 206 159 184 189 169 165 135 49 149 130 116 150 165 164 186 191 168 153 155 158 160 165 95 121 140 91 41 136 139 144 141 174 242 230 139 169 171 162 153 144 124 105 94 92 87 77 74 65 57
254 245 107 93 143 148 144 144 160 178 201 223 221 239 291 317 301 305 302 223 212 217 247 261 258 269 294 295 215 171 124 129 151 150 171 173 169 215 229 207 166 158 146 153 192 172 152 124 122 123 147 165 155 195 226 192 162 160 166 168 155 127 136 153 149 92 69 119 147 150 184 220 23 86 163 157 152 147 132 117 109 102 99 91 78 72 64 50
253 230 83 132 150 148 145 153 166 176 206 219 213 232 274 279 301 309 304 267 213 224 245 261 254 251 255 253 237 164 121 111 145 161 165 168 186 187 170 197 185 157 151 162 197 168 124 90 106 105 118 140 18 15 221 195 116 103 122 166 151 133 150 167 171 161 104 95 128 134 184 161 61 125 149 141 142 142 133 124 118 110 100 92 81 69 60 47
234 69 75 146 153 150 198 182 147 204 219 245 283 254 252 241 170 279 273 267 226 233 249 261 244 229 230 234 227 159 126 90 61 158 132 125 158 179 181 188 184 161 154 161 166 150 134 72 106 111 97 78 76 103 114 106 110 97 66 67 133 129 130 143 153 147 138 139 141 150 181 149 128 150 139 133 130 126 127 127 120 114 102 88 78 63 52 47
242 38 80 154 164 265 311 174 158 209 211 265 284 231 258 248 197 243 247 185 198 229 247 255 245 231 244 232 174 161 145 106 38 110 98 117 147 124 190 195 184 164 153 185 174 159 171 208 138 139 124 106 119 141 138 113 113 108 87 77 91 100 103 105 100 118 146 165 157 167 176 144 143 150 136 128 122 115 117 120 115 111 106 92 79 66 52 48
253 85 78 155 191 296 303 200 291 201 201 233 238 227 249 238 217 231 236 220 218 221 227 250 258 257 258 239 115 86 73 109 123 113 99 114 121 37 33 188 199 188 169 179 141 130 134 121 142 158 148 140 147 154 154 143 117 88 94 95 76 106 123 125 122 151 172 167 164 181 160 128 148 156 146 134 125 117 114 109 103 99 97 91 82 72 61 52
264 126 92 138 213 283 284 271 281 200 184 194 228 243 207 220 268 229 216 225 227 224 231 253 286 295 255 216 107 71 27 40 101 127 155 148 131 332 355 113 159 136 117 101 88 102 110 68 47 79 99 114 131 85 358 111 128 122 117 99 73 69 91 103 125 168 162 145 168 215 139 145 168 171 155 142 132 126 122 113 107 104 98 95 89 78 68 57
290 168 146 149 195 253 262 268 253 247 225 177 190 250 197 209 285 239 198 216 217 216 229 225 152 217 244 174 115 89 35 38 79 113 132 136 126 86 359 62 85 101 108 92 49 78 107 86 50 63 60 42 43 47 34 57 86 101 101 91 69 17 64 129 142 145 136 142 179 188 153 159 177 176 157 146 139 131 126 121 117 115 111 105 93 77 67 55
257 315 165 188 224 200 218 242 220 227 241 192 184 282 213 200 255 238 219 249 240 202 215 215 118 276 266 221 121 115 109 80 55 87 123 116 137 125 52 64 46 17 98 80 18 77 102 95 177 91 73 54 46 56 74 83 82 73 67 62 39 357 71 144 138 128 144 161 178 169 169 168 168 164 152 141 137 128 121 118 115 113 109 97 85 75 65 50
252 292 250 258 290 221 203 198 185 205 227 222 223 260 222 205 236 242 235 309 300 251 170 241 359 358 287 256 128 126 145 129 107 182 177 135 137 132 96 99 56 15 66 79 56 74 94 88 147 124 81 51 35 48 82 101 97 74 58 53 56 60 74 98 107 103 116 67 135 152 156 137 114 138 127 117 119 114 108 106 106 107 101 87 81 75 62 46
283 318 323 287 280 287 245 182 170 189 210 240 243 239 214 219 243 265 224 114 286 298 83 116 84 77 104 111 97 105 181 181 145 155 175 154 135 145 127 141 116 58 59 66 61 2 81 114 160 134 84 45 24 46 73 98 102 83 61 47 51 71 78 80 105 125 88 89 122 139 141 118 64 105 104 102 104 101 100 103 103 103 95 85 82 75 62 43
299 329 355 313 260 233 191 174 137 169 202 223 218 215 217 220 234 317 319 197 233 289 19 137 143 88 74 67 69 75 42 24 88 109 134 133 118 124 82 111 167 117 75 64 56 16 59 121 156 121 100 67 17 55 80 95 98 85 60 36 33 51 76 76 92 133 153 130 129 137 148 150 139 116 103 98 98 96 97 101 99 93 88 86 84 78 66 45
337 332 349 309 257 247 194 162 119 170 217 203 196 206 224 235 282 33 338 270 233 340 8 262 153 70 60 57 50 39 60 73 80 90 100 93 84 79 78 78 72 78 102 106 72 25 97 134 152 123 109 116 328 27 90 127 115 91 43 8 9 33 92 97 74 30 25 133 137 145 146 134 134 126 109 98 96 94 90 90 92 93 92 90 87 84 76 58